| time (UTC) | temp F | wind direction | speed knots | gust knots | rain 1hr in | rain 24hr in | rain mn in | humidity % | barometer mb |
| 20260902093005 | 73 | 213 | 0.9 | 4.3 | 0.00 | 0.00 | 0.00 | 60 | 1021.2 |
| 20260902092505 | 73 | 165 | 0.9 | 6.1 | 0.00 | 0.00 | 0.00 | 61 | 1021.3 |
| 20260902092006 | 72 | 292 | 1.7 | 5.2 | 0.00 | 0.00 | 0.00 | 60 | 1021.3 |
| 20260902091505 | 72 | 221 | 1.7 | 3.5 | 0.00 | 0.00 | 0.00 | 62 | 1021.4 |
| 20260902091006 | 71 | 242 | 0.9 | 3.5 | 0.00 | 0.00 | 0.00 | 62 | 1021.5 |
| 20260902090506 | 71 | 289 | 1.7 | 4.3 | 0.00 | 0.00 | 0.00 | 66 | 1021.5 |
| 20260902090006 | 70 | 264 | 1.7 | 4.3 | 0.00 | 0.00 | 0.00 | 69 | 1021.5 |
| 20260902085506 | 69 | 279 | 2.6 | 4.3 | 0.00 | 0.00 | 0.00 | 66 | 1021.5 |
| 20260902085005 | 69 | 165 | 2.6 | 3.5 | 0.00 | 0.00 | 0.00 | 68 | 1021.4 |
| 20260902084506 | 68 | 152 | 1.7 | 3.5 | 0.00 | 0.00 | 0.00 | 70 | 1021.4 |
| 20260902084005 | 68 | 248 | 1.7 | 3.5 | 0.00 | 0.00 | 0.00 | 69 | 1021.3 |
| 20260902083506 | 67 | 231 | 1.7 | 3.5 | 0.00 | 0.00 | 0.00 | 69 | 1021.4 |
| 20260902083006 | 67 | 235 | 0.9 | 2.6 | 0.00 | 0.00 | 0.00 | 73 | 1021.3 |
| 20260902082504 | 67 | 166 | 1.7 | 4.3 | 0.00 | 0.00 | 0.00 | 74 | 1021.3 |
| 20260902082006 | 66 | 300 | 0.9 | 3.5 | 0.00 | 0.00 | 0.00 | 77 | 1021.4 |
| 20260902081505 | 65 | 277 | 0.9 | 2.6 | 0.00 | 0.00 | 0.00 | 79 | 1021.5 |
| 20260902081005 | 64 | 230 | 0.9 | 2.6 | 0.00 | 0.00 | 0.00 | 79 | 1021.3 |
| 20260902080505 | 63 | 132 | 1.7 | 2.6 | 0.00 | 0.00 | 0.00 | 83 | 1021.2 |
| 20260902080006 | 62 | 217 | 2.6 | 3.5 | 0.00 | 0.00 | 0.00 | 84 | 1021.3 |
| 20260902075506 | 62 | 196 | 1.7 | 3.5 | 0.00 | 0.00 | 0.00 | 86 | 1021.2 |
| 20260902075005 | 62 | 250 | 0.9 | 3.5 | 0.00 | 0.00 | 0.00 | 89 | 1021.2 |
| 20260902074505 | 62 | 286 | 0.9 | 2.6 | 0.00 | 0.00 | 0.00 | 90 | 1021.2 |
| 20260902074006 | 61 | 284 | 1.7 | 3.5 | 0.00 | 0.00 | 0.00 | 91 | 1021.2 |
| 20260902073506 | 60 | 315 | 0.9 | 0.9 | 0.00 | 0.00 | 0.00 | 91 | 1021.1 |
| 20260902073006 | 60 | 82 | 0.0 | 0.9 | 0.00 | 0.00 | 0.00 | 91 | 1021.0 |
| 20260902072506 | 59 | 63 | 0.9 | 1.7 | 0.00 | 0.00 | 0.00 | 91 | 1021.1 |
| 20260902072006 | 59 | 80 | 0.0 | 1.7 | 0.00 | 0.00 | 0.00 | 91 | 1021.0 |
| 20260902071505 | 58 | 56 | 0.0 | 0.9 | 0.00 | 0.00 | 0.00 | 91 | 1021.0 |
| 20260902071005 | 58 | 344 | 0.0 | 0.9 | 0.00 | 0.00 | 0.00 | 91 | 1020.9 |
| 20260902070506 | 57 | 288 | 0.0 | 0.9 | 0.00 | 0.00 | 0.00 | 91 | 1020.9 |
| 20260902070007 | 57 | 279 | 0.9 | 1.7 | 0.00 | 0.00 | 0.00 | 91 | 1020.9 |
| 20260902065505 | 56 | 148 | 0.0 | 0.9 | 0.00 | 0.00 | 0.00 | 91 | 1020.8 |
| 20260902065006 | 56 | 153 | 0.0 | 0.9 | 0.00 | 0.00 | 0.00 | 91 | 1020.8 |
| 20260902064505 | 56 | 94 | 0.0 | 0.9 | 0.00 | 0.00 | 0.00 | 91 | 1020.9 |
| 20260902064005 | 55 | 105 | 0.0 | 0.9 | 0.00 | 0.00 | 0.00 | 90 | 1020.9 |
| 20260902063504 | 55 | 138 | 0.0 | 0.0 | 0.00 | 0.00 | 0.00 | 90 | 1021.0 |
| 20260902063005 | 55 | 142 | 0.0 | 0.0 | 0.00 | 0.00 | 0.00 | 90 | 1021.0 |
| 20260902062506 | 55 | 138 | 0.0 | 0.0 | 0.00 | 0.00 | 0.00 | 90 | 1020.9 |
| 20260902062005 | 54 | 138 | 0.0 | 0.9 | 0.00 | 0.00 | 0.00 | 90 | 1021.0 |
| 20260902061505 | 54 | 139 | 0.0 | 0.0 | 0.00 | 0.00 | 0.00 | 90 | 1020.9 |
| 20260902061006 | 54 | 140 | 0.0 | 0.9 | 0.00 | 0.00 | 0.00 | 90 | 1020.9 |
| 20260902060505 | 54 | 138 | 0.0 | 0.9 | 0.00 | 0.00 | 0.00 | 90 | 1021.0 |
| 20260902060005 | 53 | 175 | 0.0 | 0.0 | 0.00 | 0.00 | 0.00 | 90 | 1021.1 |
| 20260902055505 | 53 | 189 | 0.0 | 0.9 | 0.00 | 0.00 | 0.00 | 90 | 1021.1 |
| 20260902055005 | 53 | 157 | 0.0 | 0.0 | 0.00 | 0.00 | 0.00 | 90 | 1021.0 |
| 20260902054505 | 53 | 158 | 0.0 | 0.9 | 0.00 | 0.00 | 0.00 | 90 | 1021.0 |
| 20260902054005 | 53 | 173 | 0.0 | 0.9 | 0.00 | 0.00 | 0.00 | 89 | 1021.0 |
| 20260902053506 | 52 | 190 | 0.0 | 0.9 | 0.00 | 0.00 | 0.00 | 89 | 1021.0 |
| 20260902053005 | 52 | 254 | 0.0 | 0.9 | 0.00 | 0.00 | 0.00 | 89 | 1021.0 |
| 20260902052506 | 52 | 254 | 0.0 | 0.9 | 0.00 | 0.00 | 0.00 | 89 | 1021.0 |
| 20260902052005 | 52 | 151 | 0.0 | 0.9 | 0.00 | 0.00 | 0.00 | 89 | 1021.0 |
| 20260902051505 | 52 | 101 | 0.0 | 0.9 | 0.00 | 0.00 | 0.00 | 89 | 1020.9 |
| 20260902051006 | 52 | 119 | 0.0 | 0.9 | 0.00 | 0.00 | 0.00 | 89 | 1020.9 |
| 20260902050506 | 52 | 153 | 0.0 | 0.9 | 0.00 | 0.00 | 0.00 | 89 | 1020.9 |
| 20260902050008 | 52 | 150 | 0.0 | 0.9 | 0.00 | 0.00 | 0.00 | 88 | 1020.8 |
| 20260902045505 | 52 | 146 | 0.0 | 0.9 | 0.00 | 0.00 | 0.00 | 88 | 1020.8 |
| 20260902045006 | 52 | 146 | 0.0 | 0.0 | 0.00 | 0.00 | 0.00 | 88 | 1020.7 |
| 20260902044505 | 52 | 153 | 0.0 | 0.0 | 0.00 | 0.00 | 0.00 | 88 | 1020.7 |
| 20260902044005 | 52 | 152 | 0.0 | 0.0 | 0.00 | 0.00 | 0.00 | 89 | 1020.6 |
| 20260902043504 | 52 | 151 | 0.0 | 0.9 | 0.00 | 0.00 | 0.00 | 89 | 1020.6 |
| 20260902043005 | 53 | 152 | 0.0 | 0.9 | 0.00 | 0.00 | 0.00 | 88 | 1020.6 |
| 20260902042506 | 53 | 159 | 0.0 | 0.0 | 0.00 | 0.00 | 0.00 | 88 | 1020.7 |
| 20260902042004 | 53 | 155 | 0.0 | 0.0 | 0.00 | 0.00 | 0.00 | 89 | 1020.7 |
| 20260902041505 | 53 | 155 | 0.0 | 0.9 | 0.00 | 0.00 | 0.00 | 88 | 1020.6 |
| 20260902041006 | 53 | 155 | 0.0 | 0.9 | 0.00 | 0.00 | 0.00 | 88 | 1020.6 |
| 20260902040506 | 53 | 157 | 0.0 | 1.7 | 0.00 | 0.00 | 0.00 | 89 | 1020.6 |
| 20260902040006 | 52 | 144 | 0.0 | 0.9 | 0.00 | 0.00 | 0.00 | 88 | 1020.6 |
| 20260902035506 | 52 | 137 | 0.0 | 0.0 | 0.00 | 0.00 | 0.00 | 88 | 1020.6 |
| 20260902035006 | 52 | 142 | 0.0 | 0.9 | 0.00 | 0.00 | 0.00 | 88 | 1020.6 |
| 20260902034505 | 52 | 142 | 0.0 | 0.0 | 0.00 | 0.00 | 0.00 | 88 | 1020.6 |
| 20260902034007 | 52 | 142 | 0.0 | 0.0 | 0.00 | 0.00 | 0.00 | 88 | 1020.5 |
| 20260902033505 | 52 | 142 | 0.0 | 0.0 | 0.00 | 0.00 | 0.00 | 88 | 1020.6 |
| 20260902033006 | 52 | 142 | 0.0 | 0.9 | 0.00 | 0.00 | 0.00 | 88 | 1020.6 |
| 20260902032506 | 52 | 142 | 0.0 | 0.9 | 0.00 | 0.00 | 0.00 | 88 | 1020.6 |
| 20260902032005 | 52 | 92 | 0.9 | 1.7 | 0.00 | 0.00 | 0.00 | 88 | 1020.7 |
| 20260902031506 | 52 | 92 | 0.0 | 0.9 | 0.00 | 0.00 | 0.00 | 87 | 1020.8 |
| 20260902030739 | 52 | 92 | 0.0 | 0.9 | 0.00 | 0.00 | 0.00 | 87 | 1020.7 |
| 20260902030239 | 52 | 92 | 0.0 | 0.9 | 0.00 | 0.00 | 0.00 | 87 | 1020.7 |
| 20260902025738 | 52 | 92 | 0.0 | 0.0 | 0.00 | 0.00 | 0.00 | 87 | 1020.7 |
| 20260902025239 | 52 | 91 | 0.0 | 0.0 | 0.00 | 0.00 | 0.00 | 87 | 1020.8 |
| 20260902024737 | 53 | 91 | 0.0 | 0.0 | 0.00 | 0.00 | 0.00 | 87 | 1020.7 |
| 20260902024237 | 53 | 91 | 0.0 | 0.9 | 0.00 | 0.00 | 0.00 | 87 | 1020.7 |
| 20260902023738 | 53 | 91 | 0.0 | 0.9 | 0.00 | 0.00 | 0.00 | 87 | 1020.7 |
| 20260902023237 | 53 | 91 | 0.0 | 0.9 | 0.00 | 0.00 | 0.00 | 87 | 1020.7 |
| 20260902022738 | 53 | 93 | 0.9 | 0.9 | 0.00 | 0.00 | 0.00 | 87 | 1020.7 |
| 20260902022237 | 53 | 157 | 0.0 | 0.0 | 0.00 | 0.00 | 0.00 | 87 | 1020.7 |
| 20260902021739 | 53 | 157 | 0.0 | 0.0 | 0.00 | 0.00 | 0.00 | 87 | 1020.7 |
| 20260902021239 | 53 | 157 | 0.0 | 0.9 | 0.00 | 0.00 | 0.00 | 87 | 1020.5 |
| 20260902020737 | 53 | 157 | 0.0 | 0.9 | 0.00 | 0.00 | 0.00 | 87 | 1020.6 |
| 20260902020239 | 53 | 157 | 0.0 | 1.7 | 0.00 | 0.00 | 0.00 | 87 | 1020.5 |
| 20260902015739 | 53 | 161 | 0.0 | 0.0 | 0.00 | 0.00 | 0.00 | 86 | 1020.6 |
| 20260902015239 | 53 | 161 | 0.0 | 1.7 | 0.00 | 0.00 | 0.00 | 86 | 1020.6 |
| 20260902014738 | 54 | 144 | 0.0 | 0.9 | 0.00 | 0.00 | 0.00 | 86 | 1020.6 |
| 20260902014238 | 54 | 143 | 0.0 | 0.9 | 0.00 | 0.00 | 0.00 | 86 | 1020.6 |
| 20260902013738 | 54 | 76 | 0.0 | 0.9 | 0.00 | 0.00 | 0.00 | 86 | 1020.5 |
| 20260902013239 | 54 | 70 | 0.0 | 0.0 | 0.00 | 0.00 | 0.00 | 86 | 1020.6 |
| 20260902012737 | 54 | 70 | 0.0 | 0.9 | 0.00 | 0.00 | 0.00 | 86 | 1020.6 |
| 20260902012238 | 54 | 78 | 0.0 | 1.7 | 0.00 | 0.00 | 0.00 | 86 | 1020.6 |
| 20260902011738 | 54 | 163 | 0.0 | 0.9 | 0.00 | 0.00 | 0.00 | 86 | 1020.6 |
| 20260902011237 | 54 | 163 | 0.0 | 0.0 | 0.00 | 0.00 | 0.00 | 86 | 1020.7 |
| 20260902010738 | 54 | 163 | 0.0 | 1.7 | 0.00 | 0.00 | 0.00 | 86 | 1020.6 |
| 20260902010238 | 54 | 151 | 0.0 | 1.7 | 0.00 | 0.00 | 0.00 | 86 | 1020.6 |
| 20260902005738 | 54 | 143 | 0.0 | 0.9 | 0.00 | 0.00 | 0.00 | 86 | 1020.6 |
| 20260902005238 | 55 | 143 | 0.0 | 1.7 | 0.00 | 0.00 | 0.00 | 86 | 1020.7 |
| 20260902004738 | 54 | 134 | 0.9 | 1.7 | 0.00 | 0.00 | 0.00 | 86 | 1020.7 |
| 20260902004238 | 55 | 134 | 0.0 | 0.9 | 0.00 | 0.00 | 0.00 | 85 | 1020.7 |
| 20260902003737 | 55 | 134 | 0.0 | 0.0 | 0.00 | 0.00 | 0.00 | 85 | 1020.7 |
| 20260902003238 | 55 | 134 | 0.0 | 0.0 | 0.00 | 0.00 | 0.00 | 85 | 1020.7 |
| 20260902002739 | 55 | 134 | 0.0 | 0.9 | 0.00 | 0.00 | 0.00 | 85 | 1020.7 |
| 20260902002238 | 55 | 132 | 0.0 | 0.9 | 0.00 | 0.00 | 0.00 | 85 | 1020.7 |
| 20260902001738 | 55 | 151 | 0.0 | 0.9 | 0.00 | 0.00 | 0.00 | 84 | 1020.8 |
| 20260902001239 | 55 | 151 | 0.0 | 0.9 | 0.00 | 0.00 | 0.00 | 84 | 1020.9 |
| 20260902000739 | 55 | 151 | 0.0 | 0.0 | 0.00 | 0.00 | 0.00 | 85 | 1020.8 |
| 20260902000241 | 55 | 151 | 0.0 | 0.0 | 0.00 | 0.00 | 0.00 | 84 | 1020.8 |
| 20260901235739 | 56 | 151 | 0.9 | 1.7 | 0.00 | 0.00 | 0.00 | 84 | 1020.8 |
| 20260901235238 | 56 | 137 | 0.0 | 1.7 | 0.00 | 0.00 | 0.00 | 84 | 1020.9 |
| 20260901234739 | 56 | 123 | 0.9 | 0.9 | 0.00 | 0.00 | 0.00 | 84 | 1020.9 |
| 20260901234239 | 56 | 123 | 0.0 | 0.0 | 0.00 | 0.00 | 0.00 | 83 | 1021.0 |
| 20260901233738 | 56 | 123 | 0.0 | 0.0 | 0.00 | 0.00 | 0.00 | 84 | 1020.9 |
| 20260901233239 | 56 | 123 | 0.0 | 0.0 | 0.00 | 0.00 | 0.00 | 84 | 1020.9 |
| 20260901232739 | 56 | 123 | 0.0 | 0.0 | 0.00 | 0.00 | 0.00 | 84 | 1020.9 |
| 20260901232238 | 56 | 123 | 0.9 | 0.9 | 0.00 | 0.00 | 0.00 | 83 | 1021.0 |
| 20260901231739 | 56 | 123 | 0.0 | 1.7 | 0.00 | 0.00 | 0.00 | 83 | 1020.9 |
| 20260901231237 | 57 | 193 | 0.0 | 0.9 | 0.00 | 0.00 | 0.00 | 83 | 1020.9 |
| 20260901230739 | 57 | 193 | 0.0 | 0.9 | 0.00 | 0.00 | 0.00 | 83 | 1020.8 |
| 20260901230238 | 57 | 193 | 0.0 | 0.0 | 0.00 | 0.00 | 0.00 | 83 | 1020.8 |
| 20260901225737 | 57 | 193 | 0.0 | 0.0 | 0.00 | 0.00 | 0.00 | 83 | 1020.8 |
| 20260901225237 | 57 | 193 | 0.0 | 0.0 | 0.00 | 0.00 | 0.00 | 82 | 1020.9 |
| 20260901224737 | 57 | 193 | 0.0 | 0.9 | 0.00 | 0.00 | 0.00 | 82 | 1020.9 |
| 20260901224237 | 57 | 194 | 0.9 | 0.9 | 0.00 | 0.00 | 0.00 | 82 | 1020.9 |
| 20260901223737 | 58 | 194 | 0.0 | 0.9 | 0.00 | 0.00 | 0.00 | 82 | 1020.8 |
| 20260901223237 | 58 | 176 | 0.0 | 0.9 | 0.00 | 0.00 | 0.00 | 82 | 1020.8 |
| 20260901222739 | 58 | 175 | 0.0 | 0.9 | 0.00 | 0.00 | 0.00 | 82 | 1020.7 |
| 20260901222238 | 58 | 158 | 0.0 | 0.0 | 0.00 | 0.00 | 0.00 | 81 | 1020.7 |
| 20260901221739 | 58 | 158 | 0.0 | 0.0 | 0.00 | 0.00 | 0.00 | 81 | 1020.8 |
| 20260901221238 | 58 | 158 | 0.0 | 0.9 | 0.00 | 0.00 | 0.00 | 81 | 1020.7 |
| 20260901220739 | 58 | 158 | 0.9 | 1.7 | 0.00 | 0.00 | 0.00 | 81 | 1020.7 |
| 20260901220238 | 58 | 123 | 0.0 | 0.9 | 0.00 | 0.00 | 0.00 | 81 | 1020.7 |
| 20260901215738 | 58 | 82 | 0.9 | 1.7 | 0.00 | 0.00 | 0.00 | 81 | 1020.7 |
| 20260901215239 | 58 | 119 | 0.9 | 2.6 | 0.00 | 0.00 | 0.00 | 81 | 1020.7 |
| 20260901214739 | 58 | 113 | 0.0 | 2.6 | 0.00 | 0.00 | 0.00 | 81 | 1020.7 |
| 20260901214238 | 59 | 103 | 0.0 | 2.6 | 0.00 | 0.00 | 0.00 | 80 | 1020.7 |
| 20260901213738 | 59 | 146 | 0.0 | 0.9 | 0.00 | 0.00 | 0.00 | 80 | 1020.8 |
| 20260901213238 | 59 | 146 | 0.0 | 0.9 | 0.00 | 0.00 | 0.00 | 80 | 1020.8 |
| 20260901212739 | 59 | 146 | 0.0 | 0.0 | 0.00 | 0.00 | 0.00 | 79 | 1020.7 |
| 20260901212239 | 59 | 146 | 0.0 | 0.0 | 0.00 | 0.00 | 0.00 | 79 | 1020.7 |
| 20260901211738 | 59 | 145 | 0.0 | 0.0 | 0.00 | 0.00 | 0.00 | 79 | 1020.7 |
| 20260901211237 | 59 | 145 | 0.9 | 0.9 | 0.00 | 0.00 | 0.00 | 78 | 1020.7 |
| 20260901210739 | 60 | 145 | 0.0 | 0.9 | 0.00 | 0.00 | 0.00 | 78 | 1020.8 |
| 20260901210238 | 60 | 145 | 0.0 | 0.0 | 0.00 | 0.00 | 0.00 | 77 | 1020.7 |
| 20260901205737 | 60 | 145 | 0.0 | 0.9 | 0.00 | 0.00 | 0.00 | 77 | 1020.7 |
| 20260901205237 | 60 | 145 | 0.0 | 0.9 | 0.00 | 0.00 | 0.00 | 77 | 1020.7 |
| 20260901204737 | 60 | 145 | 0.9 | 1.7 | 0.00 | 0.00 | 0.00 | 77 | 1020.7 |
| 20260901204238 | 60 | 145 | 0.0 | 0.9 | 0.00 | 0.00 | 0.00 | 77 | 1020.8 |
| 20260901203737 | 61 | 145 | 0.0 | 0.9 | 0.00 | 0.00 | 0.00 | 76 | 1020.8 |
| 20260901203239 | 61 | 145 | 0.0 | 0.9 | 0.00 | 0.00 | 0.00 | 75 | 1020.8 |
| 20260901202739 | 61 | 145 | 0.0 | 0.9 | 0.00 | 0.00 | 0.00 | 75 | 1020.7 |
| 20260901202239 | 61 | 145 | 0.0 | 0.9 | 0.00 | 0.00 | 0.00 | 75 | 1020.7 |
| 20260901201739 | 62 | 145 | 0.0 | 0.9 | 0.00 | 0.00 | 0.00 | 74 | 1020.7 |
| 20260901201239 | 62 | 145 | 0.0 | 1.7 | 0.00 | 0.00 | 0.00 | 74 | 1020.7 |
| 20260901200738 | 62 | 144 | 0.9 | 1.7 | 0.00 | 0.00 | 0.00 | 74 | 1020.7 |
| 20260901200239 | 62 | 152 | 0.0 | 0.9 | 0.00 | 0.00 | 0.00 | 73 | 1020.6 |
| 20260901195738 | 63 | 159 | 0.9 | 1.7 | 0.00 | 0.00 | 0.00 | 73 | 1020.5 |
| 20260901195239 | 63 | 148 | 0.0 | 1.7 | 0.00 | 0.00 | 0.00 | 72 | 1020.6 |
| 20260901194739 | 63 | 150 | 0.0 | 1.7 | 0.00 | 0.00 | 0.00 | 72 | 1020.6 |
| 20260901194239 | 64 | 148 | 0.9 | 0.9 | 0.00 | 0.00 | 0.00 | 71 | 1020.6 |
| 20260901193739 | 64 | 150 | 0.9 | 1.7 | 0.00 | 0.00 | 0.00 | 71 | 1020.6 |
| 20260901193239 | 64 | 138 | 0.0 | 0.9 | 0.00 | 0.00 | 0.00 | 70 | 1020.5 |
| 20260901192738 | 65 | 138 | 0.0 | 1.7 | 0.00 | 0.00 | 0.00 | 69 | 1020.6 |
| 20260901192239 | 65 | 144 | 0.9 | 1.7 | 0.00 | 0.00 | 0.00 | 69 | 1020.5 |
| 20260901191737 | 65 | 142 | 0.9 | 1.7 | 0.00 | 0.00 | 0.00 | 69 | 1020.6 |
| 20260901191237 | 66 | 101 | 1.7 | 3.5 | 0.00 | 0.00 | 0.00 | 68 | 1020.5 |
| 20260901190738 | 66 | 111 | 1.7 | 2.6 | 0.00 | 0.00 | 0.00 | 67 | 1020.5 |
| 20260901190237 | 67 | 124 | 0.9 | 1.7 | 0.00 | 0.00 | 0.00 | 66 | 1020.5 |
| 20260901185738 | 67 | 121 | 0.0 | 0.9 | 0.00 | 0.00 | 0.00 | 66 | 1020.5 |
| 20260901185237 | 67 | 131 | 0.0 | 0.9 | 0.00 | 0.00 | 0.00 | 65 | 1020.4 |
| 20260901184739 | 68 | 130 | 0.0 | 1.7 | 0.00 | 0.00 | 0.00 | 64 | 1020.4 |
| 20260901184238 | 68 | 89 | 0.9 | 4.3 | 0.00 | 0.00 | 0.00 | 63 | 1020.4 |
| 20260901183738 | 69 | 121 | 1.7 | 2.6 | 0.00 | 0.00 | 0.00 | 63 | 1020.3 |
| 20260901183238 | 69 | 111 | 0.9 | 1.7 | 0.00 | 0.00 | 0.00 | 63 | 1020.2 |
| 20260901182738 | 69 | 88 | 0.9 | 2.6 | 0.00 | 0.00 | 0.00 | 62 | 1020.2 |
| 20260901182238 | 70 | 84 | 0.0 | 1.7 | 0.00 | 0.00 | 0.00 | 61 | 1020.1 |
| 20260901181739 | 70 | 78 | 0.9 | 2.6 | 0.00 | 0.00 | 0.00 | 59 | 1020.1 |
| 20260901181238 | 71 | 80 | 0.9 | 1.7 | 0.00 | 0.00 | 0.00 | 58 | 1020.1 |
| 20260901180739 | 71 | 117 | 0.9 | 2.6 | 0.00 | 0.00 | 0.00 | 58 | 1020.0 |
| 20260901180239 | 72 | 34 | 0.0 | 0.9 | 0.00 | 0.00 | 0.00 | 57 | 1020.0 |
| 20260901175737 | 72 | 33 | 0.0 | 1.7 | 0.00 | 0.00 | 0.00 | 57 | 1020.0 |
| 20260901175238 | 73 | 75 | 0.9 | 4.3 | 0.00 | 0.00 | 0.00 | 56 | 1020.0 |
| 20260901174738 | 73 | 84 | 0.9 | 1.7 | 0.00 | 0.00 | 0.00 | 55 | 1019.9 |
| 20260901174238 | 73 | 48 | 0.0 | 0.9 | 0.00 | 0.00 | 0.00 | 55 | 1019.9 |
| 20260901173737 | 74 | 15 | 0.0 | 1.7 | 0.00 | 0.00 | 0.00 | 54 | 1019.9 |
| 20260901173238 | 74 | 9 | 0.9 | 1.7 | 0.00 | 0.00 | 0.00 | 52 | 1020.0 |
| 20260901172737 | 74 | 348 | 0.9 | 1.7 | 0.00 | 0.00 | 0.00 | 52 | 1020.0 |
| 20260901172238 | 75 | 309 | 0.9 | 1.7 | 0.00 | 0.00 | 0.00 | 52 | 1019.9 |
| 20260901171738 | 75 | 348 | 0.9 | 1.7 | 0.00 | 0.00 | 0.00 | 51 | 1019.9 |
| 20260901171239 | 76 | 319 | 0.9 | 1.7 | 0.00 | 0.00 | 0.00 | 49 | 1020.0 |
| 20260901170737 | 76 | 285 | 0.0 | 1.7 | 0.00 | 0.00 | 0.00 | 49 | 1020.0 |
| 20260901170239 | 76 | 323 | 0.9 | 1.7 | 0.00 | 0.00 | 0.00 | 48 | 1020.0 |
| 20260901165739 | 76 | 329 | 0.9 | 2.6 | 0.00 | 0.00 | 0.00 | 48 | 1020.1 |
| 20260901165238 | 77 | 340 | 0.9 | 2.6 | 0.00 | 0.00 | 0.00 | 47 | 1020.1 |
| 20260901164738 | 77 | 323 | 0.0 | 1.7 | 0.00 | 0.00 | 0.00 | 47 | 1020.1 |
| 20260901164239 | 78 | 304 | 1.7 | 2.6 | 0.00 | 0.00 | 0.00 | 45 | 1020.0 |
| 20260901163739 | 78 | 360 | 0.0 | 1.7 | 0.00 | 0.00 | 0.00 | 46 | 1020.1 |
| 20260901163238 | 78 | 355 | 0.0 | 1.7 | 0.00 | 0.00 | 0.00 | 46 | 1020.0 |
| 20260901162738 | 79 | 267 | 0.9 | 2.6 | 0.00 | 0.00 | 0.00 | 47 | 1020.1 |
| 20260901162238 | 79 | 321 | 0.9 | 2.6 | 0.00 | 0.00 | 0.00 | 45 | 1020.1 |
| 20260901161739 | 79 | 99 | 0.0 | 0.9 | 0.00 | 0.00 | 0.00 | 43 | 1020.1 |
| 20260901161239 | 80 | 98 | 0.9 | 1.7 | 0.00 | 0.00 | 0.00 | 44 | 1020.1 |
| 20260901160738 | 80 | 127 | 0.9 | 2.6 | 0.00 | 0.00 | 0.00 | 41 | 1020.1 |
| 20260901160239 | 80 | 67 | 1.7 | 3.5 | 0.00 | 0.00 | 0.00 | 44 | 1020.0 |
| 20260901155738 | 80 | 45 | 1.7 | 2.6 | 0.00 | 0.00 | 0.00 | 45 | 1020.1 |
| 20260901155239 | 80 | 68 | 1.7 | 4.3 | 0.00 | 0.00 | 0.00 | 46 | 1020.2 |
| 20260901154739 | 80 | 340 | 1.7 | 3.5 | 0.00 | 0.00 | 0.00 | 43 | 1020.2 |
| 20260901154239 | 80 | 44 | 0.9 | 2.6 | 0.00 | 0.00 | 0.00 | 45 | 1020.2 |
| 20260901153739 | 81 | 333 | 0.9 | 2.6 | 0.00 | 0.00 | 0.00 | 44 | 1020.2 |
| 20260901153238 | 81 | 202 | 0.9 | 2.6 | 0.00 | 0.00 | 0.00 | 41 | 1020.2 |
| 20260901152738 | 82 | 193 | 1.7 | 3.5 | 0.00 | 0.00 | 0.00 | 41 | 1020.3 |
| 20260901152238 | 82 | 153 | 1.7 | 4.3 | 0.00 | 0.00 | 0.00 | 43 | 1020.3 |
| 20260901151737 | 82 | 5 | 0.9 | 4.3 | 0.00 | 0.00 | 0.00 | 42 | 1020.3 |
| 20260901151238 | 83 | 110 | 0.9 | 4.3 | 0.00 | 0.00 | 0.00 | 45 | 1020.3 |
| 20260901150738 | 83 | 65 | 0.0 | 3.5 | 0.00 | 0.00 | 0.00 | 43 | 1020.3 |
| 20260901150238 | 82 | 279 | 0.9 | 4.3 | 0.00 | 0.00 | 0.00 | 45 | 1020.3 |
| 20260901145738 | 82 | 104 | 1.7 | 3.5 | 0.00 | 0.00 | 0.00 | 45 | 1020.2 |
| 20260901145239 | 81 | 49 | 0.9 | 3.5 | 0.00 | 0.00 | 0.00 | 46 | 1020.3 |
| 20260901144739 | 80 | 355 | 0.0 | 4.3 | 0.00 | 0.00 | 0.00 | 45 | 1020.3 |
| 20260901144238 | 80 | 224 | 0.9 | 1.7 | 0.00 | 0.00 | 0.00 | 46 | 1020.3 |
| 20260901143738 | 80 | 215 | 0.9 | 2.6 | 0.00 | 0.00 | 0.00 | 45 | 1020.4 |
| 20260901143239 | 80 | 163 | 0.9 | 3.5 | 0.00 | 0.00 | 0.00 | 45 | 1020.5 |
| 20260901142739 | 80 | 324 | 4.3 | 6.1 | 0.00 | 0.00 | 0.00 | 45 | 1020.5 |
| 20260901142238 | 80 | 294 | 1.7 | 3.5 | 0.00 | 0.00 | 0.00 | 46 | 1020.5 |
| 20260901141738 | 78 | 230 | 0.9 | 4.3 | 0.00 | 0.00 | 0.00 | 50 | 1020.5 |
| 20260901141238 | 77 | 107 | 0.9 | 3.5 | 0.00 | 0.00 | 0.00 | 50 | 1020.5 |
| 20260901140739 | 76 | 65 | 0.9 | 1.7 | 0.00 | 0.00 | 0.00 | 54 | 1020.6 |
| 20260901140238 | 76 | 355 | 0.9 | 3.5 | 0.00 | 0.00 | 0.00 | 51 | 1020.7 |
| 20260901135738 | 77 | 26 | 1.7 | 4.3 | 0.00 | 0.00 | 0.00 | 51 | 1020.7 |
| 20260901135237 | 77 | 5 | 0.9 | 4.3 | 0.00 | 0.00 | 0.00 | 51 | 1020.7 |
| 20260901134738 | 78 | 34 | 1.7 | 4.3 | 0.00 | 0.00 | 0.00 | 50 | 1020.7 |
| 20260901134238 | 78 | 30 | 0.9 | 3.5 | 0.00 | 0.00 | 0.00 | 52 | 1020.7 |
| 20260901133739 | 78 | 331 | 1.7 | 4.3 | 0.00 | 0.00 | 0.00 | 51 | 1020.7 |
| 20260901133239 | 78 | 82 | 1.7 | 7.0 | 0.00 | 0.00 | 0.00 | 53 | 1020.9 |
| 20260901132738 | 77 | 337 | 1.7 | 5.2 | 0.00 | 0.00 | 0.00 | 52 | 1020.9 |
| 20260901132238 | 78 | 33 | 0.9 | 5.2 | 0.00 | 0.00 | 0.00 | 51 | 1020.9 |
| 20260901131738 | 78 | 63 | 1.7 | 6.1 | 0.00 | 0.00 | 0.00 | 53 | 1021.0 |
| 20260901131238 | 78 | 71 | 1.7 | 5.2 | 0.00 | 0.00 | 0.00 | 50 | 1021.0 |
| 20260901130739 | 79 | 104 | 2.6 | 7.8 | 0.00 | 0.00 | 0.00 | 50 | 1021.0 |
| 20260901130239 | 80 | 336 | 2.6 | 8.7 | 0.00 | 0.00 | 0.00 | 49 | 1021.0 |
| 20260901125737 | 80 | 342 | 2.6 | 9.6 | 0.00 | 0.01 | 0.00 | 49 | 1021.1 |
| 20260901125238 | 80 | 327 | 3.5 | 9.6 | 0.00 | 0.01 | 0.00 | 48 | 1021.2 |
| 20260901124737 | 80 | 285 | 1.7 | 7.8 | 0.00 | 0.01 | 0.00 | 43 | 1021.2 |
| 20260901124237 | 80 | 40 | 5.2 | 9.6 | 0.00 | 0.01 | 0.00 | 45 | 1021.2 |
| 20260901123737 | 79 | 100 | 1.7 | 4.3 | 0.00 | 0.01 | 0.00 | 43 | 1021.1 |
| 20260901123238 | 79 | 298 | 2.6 | 5.2 | 0.00 | 0.01 | 0.00 | 47 | 1021.2 |
| 20260901122738 | 78 | 326 | 1.7 | 4.3 | 0.00 | 0.01 | 0.00 | 51 | 1021.2 |
| 20260901122237 | 76 | 311 | 1.7 | 3.5 | 0.00 | 0.01 | 0.00 | 53 | 1021.2 |
| 20260901121738 | 76 | 323 | 1.7 | 5.2 | 0.00 | 0.01 | 0.00 | 50 | 1021.2 |
| 20260901121239 | 76 | 291 | 3.5 | 5.2 | 0.00 | 0.01 | 0.00 | 47 | 1021.3 |
| 20260901120739 | 76 | 288 | 3.5 | 4.3 | 0.00 | 0.01 | 0.00 | 49 | 1021.3 |
| 20260901120239 | 76 | 286 | 3.5 | 6.1 | 0.00 | 0.01 | 0.00 | 47 | 1021.3 |
| 20260901115739 | 76 | 275 | 1.7 | 4.3 | 0.00 | 0.01 | 0.00 | 51 | 1021.4 |
| 20260901115239 | 77 | 344 | 1.7 | 3.5 | 0.00 | 0.01 | 0.00 | 48 | 1021.4 |
| 20260901114738 | 77 | 198 | 3.5 | 4.3 | 0.00 | 0.01 | 0.00 | 50 | 1021.3 |
| 20260901114238 | 77 | 290 | 1.7 | 2.6 | 0.00 | 0.01 | 0.00 | 50 | 1021.4 |
| 20260901113739 | 77 | 316 | 1.7 | 3.5 | 0.00 | 0.01 | 0.00 | 50 | 1021.3 |
| 20260901113239 | 77 | 317 | 2.6 | 7.0 | 0.00 | 0.01 | 0.00 | 50 | 1021.3 |
| 20260901112737 | 77 | 334 | 2.6 | 4.3 | 0.00 | 0.01 | 0.00 | 46 | 1021.3 |
| 20260901112238 | 78 | 257 | 2.6 | 7.0 | 0.00 | 0.01 | 0.00 | 44 | 1021.4 |
| 20260901111737 | 79 | 329 | 1.7 | 5.2 | 0.00 | 0.01 | 0.00 | 47 | 1021.4 |
| 20260901111237 | 79 | 225 | 1.7 | 4.3 | 0.00 | 0.01 | 0.00 | 47 | 1021.4 |
| 20260901110738 | 79 | 63 | 0.9 | 3.5 | 0.00 | 0.01 | 0.00 | 49 | 1021.5 |
| 20260901110237 | 79 | 148 | 0.0 | 1.7 | 0.00 | 0.01 | 0.00 | 48 | 1021.5 |
| 20260901105738 | 79 | 338 | 1.7 | 3.5 | 0.00 | 0.01 | 0.00 | 47 | 1021.5 |
| 20260901105237 | 79 | 336 | 1.7 | 3.5 | 0.00 | 0.01 | 0.00 | 51 | 1021.5 |
| 20260901104739 | 79 | 317 | 0.9 | 2.6 | 0.00 | 0.01 | 0.00 | 51 | 1021.6 |
| 20260901104238 | 79 | 334 | 3.5 | 6.1 | 0.00 | 0.01 | 0.00 | 48 | 1021.7 |
| 20260901103738 | 78 | 261 | 2.6 | 6.1 | 0.00 | 0.01 | 0.00 | 50 | 1021.8 |
| 20260901103238 | 78 | 319 | 2.6 | 5.2 | 0.00 | 0.01 | 0.00 | 50 | 1021.8 |
| 20260901102738 | 77 | 207 | 2.6 | 3.5 | 0.00 | 0.01 | 0.00 | 50 | 1021.7 |
| 20260901102239 | 77 | 162 | 1.7 | 2.6 | 0.00 | 0.01 | 0.00 | 50 | 1021.8 |
| 20260901101738 | 76 | 255 | 1.7 | 4.3 | 0.00 | 0.01 | 0.00 | 54 | 1021.8 |
| 20260901101239 | 76 | 187 | 1.7 | 5.2 | 0.00 | 0.01 | 0.00 | 54 | 1021.9 |
| 20260901100739 | 76 | 180 | 1.7 | 4.3 | 0.00 | 0.01 | 0.00 | 58 | 1021.9 |
| 20260901100238 | 75 | 201 | 2.6 | 4.3 | 0.00 | 0.01 | 0.00 | 54 | 1021.9 |
| 20260901095738 | 75 | 222 | 1.7 | 5.2 | 0.00 | 0.01 | 0.00 | 57 | 1021.9 |
| 20260901095237 | 74 | 150 | 0.9 | 2.6 | 0.00 | 0.01 | 0.00 | 59 | 1021.9 |
| 20260901094737 | 74 | 128 | 0.9 | 2.6 | 0.00 | 0.01 | 0.00 | 57 | 1022.0 |
| 20260901094238 | 74 | 87 | 0.9 | 5.2 | 0.00 | 0.01 | 0.00 | 56 | 1022.0 |
| 20260901093738 | 74 | 219 | 3.5 | 6.1 | 0.00 | 0.01 | 0.00 | 58 | 1022.1 |
| 20260901093239 | 73 | 284 | 0.0 | 3.5 | 0.00 | 0.01 | 0.00 | 58 | 1022.1 |